星链-4522 (STARLINK-4522 )

导读 | 星芒AI

STARLINK-4522 是 SpaceX Starlink 卫星互联网项目中的一颗低轨卫星,属于第53批发射的星链卫星之一。该卫星运行在约550公里高度的近地轨道,旨在为全球用户提供高速互联网服务。它采用先进的相控阵天线和激光通信技术,提高连接稳定性和数据传输效率。Starlink 项目致力于构建覆盖全球的卫星网络,尤其服务于偏远和网络基础设施薄弱地区。STARLINK-4522 的部署有助于增强 Starlink 网络的覆盖密度和性能。

基本信息
目录编号:
53388
目录名称:
STARLINK-4522
国际标识:
2022-097A
轨道中心:
EARTH
卫星名称:
星链-4522
卫星全名:
星链-4522 (STARLINK-4522 )
卫星状态:
在轨 (已飞行1229 天)
发射日期:
2022-08-10 UTC
国别 :
美国 (US)
星等 :
--
轨道信息
数据来源 国际轨道数据
星历时间: 2025-12-20T23:11:12+0800
17小时前
查看轨道信息
半长轴: 6917.882km
偏心率: 0.0001246
轨道倾角: 53.219°
近地点辐角 86.494°
升交点赤经 119.018°
平近点角 273.620°
近地点: 538.883km
远地点: 540.607km
周期: 95.438分钟
每日圈数: 15.088396
详细信息
固有亮度:
5
最大亮度:
2.5
卫星平台:
Starlink v1.5
覆盖范围:
全球
运营商:
太空探索技术公司
运营商所在国:
美国
制造商(研发单位):
太空探索技术公司
制造商所在国:
美国
使用方式:
暂无
卫星简介
星链(Starlink)计划是由太空探索技术公司(SpaceX)提出的一个巨型低轨卫星互联网星座项目,计划在2019年至2024年间在太空搭建由约1.2万颗卫星组成的“星链”网络,其中1584颗将部署在地球上空550千米处的近地轨道,并从2020年开始工作。该卫星仍在工作。
2D轨道图
3D轨道图
轨道高度分析图
轨道倾角分析图
轨道综合分析图
查看轨道综合分析图